Voltar ao catálogo

DELTA 1 DEB

AtivoLEO
NORAD 14563·DEBRIS·🇺🇸 United States

Lançado Jul 14, 1977 de Cape Canaveral Space Force Station

Loading…

Próximas Passagens (próximas 24 horas)

TLE

AtualizadoSource: Space-Track

Época: Sep 14, 2026, 14:58 UTC

1 14563U 77065FR  26257.62377720  .00001317  00000-0  16752-3 0  9996
2 14563  29.1738 106.4898 0424465 313.3188  43.2742 14.29317581800325

Acompanhe DELTA 1 DEB em tempo real com AllMySat

Download on the App Store